Weather History for Yellowstone, WY

Change the Weather History Date:

Thursday, June 13, 2013

  Actual Average Record
Temperature  
Mean Temperature 51 °F 48 °F  
Max Temperature 65 °F 61 °F 75 °F (2006)
Min Temperature 37 °F 34 °F 24 °F (2008)
Degree Days  
Heating Degree Days 14 17  
Month to date heating degree days 191 247  
Since 1 June heating degree days 191 247  
Since 1 July heating degree days 11390 11275  
Cooling Degree Days 0 0  
Month to date cooling degree days 0 0  
Year to date cooling degree days 0 0  
Since 1 June cooling degree days 0 0  
Moisture  
Dew Point 39 °F    
Average Humidity 71    
Maximum Humidity 100    
Minimum Humidity 42    
Precipitation  
Precipitation 0.12 in 0.07 in 0.59 in (2001)
Month to date precipitation 0.25 1.00  
Year to date precipitation 9.24 10.08  
Sea Level Pressure  
Sea Level Pressure 30.00 in    
Wind  
Wind Speed 4 mph (WNW)    
Max Wind Speed 18 mph    
Max Gust Speed 32 mph    
T = Trace of Precipitation, MM = Missing Value Source: NWS Daily Summary

Daily Weather History Graph

Daily Weather History Graph

Search for Another Location

Airport:

Trip Planner

Search our weather history database for the weather conditions in past years. The results will help you decide how hot, cold, wet, or windy it might be!

Date:

Astronomy

Jun. 13, 2013 Rise Set
Actual Time 5:36 AM MDT 9:07 PM MDT
Civil Twilight 4:59 AM MDT 9:44 PM MDT
Nautical Twilight 4:10 AM MDT 10:33 PM MDT
Astronomical Twilight 3:08 AM MDT 11:36 PM MDT
Moon 10:25 AM MDT (6/13) No Moon Set
Length of Visible Light 16h 45m
Length of Day
15h 31m
Waxing Crescent, 22% of the Moon is Illuminated
Jun 13
Waxing Crescent
Jun 16
First Quarter
Jun 23
Full
Jun 29
Last Quarter
Jul 8
New

Hourly Weather History & Observations

Time (MDT) Temp. Windchill Dew Point Humidity Pressure Visibility Wind Dir Wind Speed Gust Speed Precip Events Conditions
12:56 AM 37.0 °F - 37.0 °F 100% 30.06 in - Calm Calm - N/A   Unknown
1:56 AM 39.0 °F - 39.0 °F 100% 30.06 in - Calm Calm - N/A   Unknown
2:56 AM 39.9 °F - 39.9 °F 100% 30.05 in - Calm Calm - N/A   Unknown
3:56 AM 41.0 °F - 39.9 °F 96% 30.06 in - Calm Calm - N/A   Unknown
4:56 AM 39.9 °F - 39.9 °F 100% 30.05 in - Calm Calm - N/A   Unknown
5:56 AM 37.0 °F - 37.0 °F 100% 30.07 in - Calm Calm - N/A   Unknown
6:56 AM 41.0 °F 38.0 °F 39.9 °F 96% 30.03 in - NW 4.6 mph - N/A   Unknown
7:56 AM 48.9 °F - 42.1 °F 77% 29.97 in - Calm Calm - N/A   Unknown
8:56 AM 46.9 °F - 43.0 °F 86% 30.03 in - West 9.2 mph - 0.01 in   Unknown
9:56 AM 50.0 °F - 42.1 °F 74% 30.04 in - Calm Calm - 0.01 in   Unknown
10:56 AM 53.1 °F - 41.0 °F 64% 30.01 in - East 3.5 mph - N/A   Unknown
11:56 AM 53.1 °F - 37.9 °F 57% 29.99 in - ESE 3.5 mph - N/A   Unknown
12:56 PM 59.0 °F - 42.1 °F 53% 29.94 in - Variable 3.5 mph - N/A   Unknown
1:56 PM 55.9 °F - 45.0 °F 67% 29.94 in - Calm Calm - 0.02 in   Unknown
2:56 PM 61.0 °F - 39.9 °F 46% 29.90 in - Variable 5.8 mph - N/A   Unknown
3:56 PM 63.0 °F - 39.9 °F 43% 29.88 in - Variable 5.8 mph - N/A   Unknown
4:56 PM 63.0 °F - 41.0 °F 45% 29.88 in - Variable 6.9 mph 20.7 mph N/A   Unknown
5:56 PM 61.0 °F - 39.0 °F 44% 29.90 in - Variable 4.6 mph - N/A   Unknown
6:56 PM 60.1 °F - 37.9 °F 44% 29.86 in - Variable 5.8 mph - N/A   Unknown
7:56 PM 50.0 °F - 35.1 °F 57% 29.94 in - West 8.1 mph 19.6 mph 0.01 in   Unknown
8:56 PM 48.9 °F - 30.9 °F 50% 30.02 in - West 10.4 mph 26.5 mph N/A   Unknown
9:56 PM 39.0 °F 35.7 °F 36.0 °F 89% 30.12 in - Variable 4.6 mph 19.6 mph 0.02 in   Unknown
10:56 PM 37.0 °F 34.5 °F 35.1 °F 93% 30.16 in - Variable 3.5 mph - 0.04 in   Unknown
11:56 PM 37.9 °F 35.5 °F 36.0 °F 93% 30.04 in - Variable 3.5 mph - 0.01 in   Unknown